SWA3161 KBWI-KISP

Flight info

Callsign SWA3161
Flight time 0h 42m
Altitude 21000
Route DUKPN1 DONIL MAEVE SARDI1
Aircraft B738/M-SADE2E3GIJ4RWZ/LB1D1

Departure

Time 2026-05-07 19:25
Airport Baltimore/Washington International Thurgood Marshall Airport (KBWI)

Arrival

Time 2026-05-07 20:07
Airport Long Island MacArthur Airport (KISP)
Time Latitude Longitude Altitude Speed Heading
2026-05-07 19:03 39.17709 -76.66907 173 ft 0 kts 236°
2026-05-07 19:14 39.17713 -76.66900 145 ft 2 kts 236°
2026-05-07 19:14 39.17722 -76.66882 145 ft 2 kts 236°
2026-05-07 19:15 39.17731 -76.66864 145 ft 2 kts 233°
2026-05-07 19:15 39.17742 -76.66849 145 ft 2 kts 189°
2026-05-07 19:15 39.17753 -76.66850 145 ft 1 kts 147°
2026-05-07 19:15 39.17754 -76.66852 145 ft 0 kts 146°
2026-05-07 19:17 39.17754 -76.66851 145 ft 0 kts 146°
2026-05-07 19:17 39.17739 -76.66845 145 ft 6 kts 164°
2026-05-07 19:18 39.17701 -76.66829 145 ft 3 kts 150°
2026-05-07 19:18 39.17634 -76.66782 145 ft 17 kts 180°
2026-05-07 19:18 39.17530 -76.66736 146 ft 17 kts 112°
2026-05-07 19:18 39.17519 -76.66608 146 ft 0 kts 94°
2026-05-07 19:19 39.17519 -76.66602 146 ft 3 kts 94°
2026-05-07 19:19 39.17546 -76.66538 145 ft 14 kts 30°
2026-05-07 19:19 39.17552 -76.66432 145 ft 16 kts 120°
2026-05-07 19:19 39.17482 -76.66293 145 ft 19 kts 123°
2026-05-07 19:20 39.17452 -76.66135 146 ft 18 kts 92°
2026-05-07 19:20 39.17440 -76.65956 145 ft 22 kts 94°
2026-05-07 19:20 39.17435 -76.65878 145 ft 1 kts 105°
2026-05-07 19:20 39.17425 -76.65880 145 ft 3 kts 203°
2026-05-07 19:21 39.17370 -76.65898 147 ft 13 kts 189°
2026-05-07 19:21 39.17308 -76.65999 146 ft 21 kts 272°
2026-05-07 19:21 39.17322 -76.66264 145 ft 39 kts 274°
2026-05-07 19:21 39.17327 -76.66350 146 ft 0 kts 274°
2026-05-07 19:22 39.17327 -76.66354 146 ft 0 kts 274°
2026-05-07 19:24 39.17327 -76.66355 146 ft 3 kts 274°
2026-05-07 19:24 39.17347 -76.66728 147 ft 80 kts 275°
2026-05-07 19:24 39.17409 -76.67741 142 ft 145 kts 276°
2026-05-07 19:24 39.17476 -76.69202 475 ft 171 kts 272°
2026-05-07 19:25 39.17530 -76.70719 1334 ft 170 kts 274°
2026-05-07 19:25 39.17618 -76.72293 1962 ft 190 kts 275°
2026-05-07 19:25 39.17549 -76.74132 2233 ft 219 kts 246°
2026-05-07 19:25 39.16485 -76.75555 2675 ft 234 kts 207°
2026-05-07 19:26 39.14850 -76.75892 3148 ft 253 kts 171°
2026-05-07 19:26 39.13279 -76.74886 3968 ft 252 kts 136°
2026-05-07 19:26 39.12119 -76.73285 5154 ft 243 kts 132°
2026-05-07 19:26 39.10929 -76.71625 5814 ft 260 kts 134°
2026-05-07 19:27 39.09649 -76.69914 6560 ft 271 kts 135°
2026-05-07 19:27 39.08513 -76.67972 6910 ft 275 kts 112°
2026-05-07 19:27 39.08162 -76.65501 7097 ft 292 kts 86°
2026-05-07 19:27 39.08270 -76.62837 7688 ft 305 kts 85°
2026-05-07 19:28 39.08398 -76.60058 8410 ft 315 kts 86°
2026-05-07 19:28 39.08525 -76.57204 9176 ft 325 kts 87°
2026-05-07 19:28 39.08647 -76.54262 9938 ft 334 kts 88°
2026-05-07 19:28 39.08766 -76.51231 10477 ft 350 kts 88°
2026-05-07 19:29 39.08888 -76.47977 10682 ft 376 kts 89°
2026-05-07 19:29 39.08729 -76.44575 11137 ft 386 kts 107°
2026-05-07 19:29 39.07897 -76.41297 11915 ft 386 kts 115°
2026-05-07 19:29 39.06970 -76.38034 12750 ft 390 kts 115°
2026-05-07 19:30 39.06045 -76.34734 13535 ft 395 kts 115°
2026-05-07 19:30 39.05129 -76.31369 14217 ft 401 kts 115°
2026-05-07 19:30 39.04213 -76.27951 14892 ft 406 kts 115°
2026-05-07 19:30 39.03483 -76.24406 15552 ft 420 kts 100°
2026-05-07 19:31 39.03556 -76.20604 16244 ft 429 kts 87°
2026-05-07 19:31 39.03824 -76.16754 16870 ft 435 kts 88°
2026-05-07 19:31 39.04065 -76.12838 17456 ft 442 kts 89°
2026-05-07 19:31 39.04275 -76.08870 18066 ft 448 kts 90°
2026-05-07 19:32 39.04468 -76.04846 18604 ft 454 kts 90°
2026-05-07 19:32 39.04651 -76.00773 19122 ft 459 kts 91°
2026-05-07 19:32 39.04834 -75.96642 19630 ft 465 kts 91°
2026-05-07 19:32 39.05019 -75.92462 20124 ft 471 kts 91°
2026-05-07 19:33 39.05208 -75.88223 20637 ft 477 kts 91°
2026-05-07 19:33 39.05397 -75.84000 21022 ft 483 kts 92°
2026-05-07 19:33 39.05590 -75.79633 21005 ft 493 kts 92°
2026-05-07 19:33 39.05785 -75.75216 21009 ft 494 kts 92°
2026-05-07 19:34 39.05981 -75.70808 21013 ft 494 kts 92°
2026-05-07 19:34 39.06176 -75.66398 21005 ft 493 kts 92°
2026-05-07 19:34 39.06369 -75.61993 20996 ft 493 kts 92°
2026-05-07 19:34 39.06561 -75.57585 21000 ft 493 kts 92°
2026-05-07 19:35 39.06750 -75.53177 20999 ft 493 kts 92°
2026-05-07 19:35 39.06938 -75.48775 21000 ft 493 kts 92°
2026-05-07 19:35 39.07125 -75.44367 20998 ft 493 kts 92°
2026-05-07 19:35 39.07310 -75.39958 20999 ft 493 kts 92°
2026-05-07 19:36 39.07493 -75.35560 20998 ft 493 kts 92°
2026-05-07 19:36 39.07637 -75.31159 20995 ft 490 kts 97°
2026-05-07 19:36 39.07174 -75.26900 21005 ft 474 kts 113°
2026-05-07 19:36 39.06325 -75.22804 21006 ft 474 kts 114°
2026-05-07 19:37 39.05438 -75.18714 21014 ft 475 kts 115°
2026-05-07 19:37 39.04557 -75.14620 21015 ft 476 kts 114°
2026-05-07 19:37 39.03692 -75.10499 21018 ft 478 kts 114°
2026-05-07 19:37 39.02844 -75.06363 21021 ft 478 kts 113°
2026-05-07 19:38 39.02007 -75.02226 21024 ft 479 kts 113°
2026-05-07 19:38 39.01172 -74.98078 21027 ft 479 kts 113°
2026-05-07 19:38 39.00348 -74.93989 21021 ft 479 kts 113°
2026-05-07 19:38 38.99499 -74.89797 21022 ft 478 kts 113°
2026-05-07 19:39 38.98658 -74.85661 21025 ft 478 kts 114°
2026-05-07 19:39 38.97951 -74.81467 21006 ft 488 kts 102°
2026-05-07 19:39 38.98137 -74.77068 21037 ft 501 kts 81°
2026-05-07 19:39 38.99320 -74.72836 21042 ft 504 kts 62°
2026-05-07 19:40 39.01310 -74.69239 21011 ft 497 kts 41°
2026-05-07 19:40 39.04033 -74.66603 20986 ft 485 kts 19°
2026-05-07 19:40 39.07015 -74.64578 21012 ft 493 kts 30°
2026-05-07 19:40 39.09529 -74.61526 21062 ft 500 kts 45°
2026-05-07 19:41 39.11916 -74.58269 21019 ft 499 kts 40°
2026-05-07 19:41 39.14499 -74.55303 21031 ft 496 kts 35°
2026-05-07 19:41 39.17156 -74.52466 21028 ft 496 kts 34°
2026-05-07 19:41 39.19831 -74.49648 21014 ft 496 kts 34°
2026-05-07 19:42 39.22490 -74.46813 21012 ft 496 kts 35°
2026-05-07 19:42 39.25131 -74.43950 21010 ft 496 kts 35°
2026-05-07 19:42 39.27766 -74.41069 21016 ft 497 kts 36°
2026-05-07 19:42 39.30400 -74.38172 21014 ft 498 kts 36°
2026-05-07 19:43 39.33031 -74.35273 21008 ft 497 kts 36°
2026-05-07 19:43 39.35660 -74.32375 21012 ft 497 kts 36°
2026-05-07 19:43 39.38287 -74.29476 21021 ft 497 kts 36°
2026-05-07 19:43 39.40917 -74.26572 21014 ft 497 kts 36°
2026-05-07 19:44 39.43547 -74.23669 21010 ft 497 kts 36°
2026-05-07 19:44 39.46175 -74.20762 21012 ft 497 kts 36°
2026-05-07 19:44 39.48801 -74.17844 21013 ft 497 kts 36°
2026-05-07 19:44 39.51420 -74.14926 21013 ft 497 kts 36°
2026-05-07 19:45 39.53923 -74.11807 20998 ft 502 kts 46°
2026-05-07 19:45 39.56123 -74.08290 21018 ft 503 kts 50°
2026-05-07 19:45 39.58266 -74.04710 21010 ft 503 kts 49°
2026-05-07 19:45 39.60456 -74.01167 21006 ft 503 kts 48°
2026-05-07 19:46 39.62675 -73.97671 21004 ft 503 kts 48°
2026-05-07 19:46 39.64908 -73.94177 21005 ft 503 kts 47°
2026-05-07 19:46 39.67142 -73.90684 21000 ft 503 kts 47°
2026-05-07 19:46 39.69372 -73.87187 21000 ft 502 kts 48°
2026-05-07 19:47 39.71593 -73.83693 21001 ft 502 kts 48°
2026-05-07 19:47 39.73814 -73.80190 21002 ft 502 kts 48°
2026-05-07 19:47 39.76032 -73.76683 21001 ft 502 kts 48°
2026-05-07 19:47 39.78253 -73.73170 21003 ft 502 kts 48°
2026-05-07 19:48 39.80465 -73.69666 21002 ft 502 kts 48°
2026-05-07 19:48 39.82685 -73.66149 21004 ft 502 kts 48°
2026-05-07 19:48 39.84900 -73.62634 21001 ft 502 kts 48°
2026-05-07 19:48 39.87115 -73.59115 20999 ft 503 kts 48°
2026-05-07 19:49 39.89332 -73.55591 21000 ft 503 kts 48°
2026-05-07 19:49 39.91644 -73.52198 20999 ft 501 kts 40°
2026-05-07 19:49 39.94155 -73.49134 20967 ft 500 kts 37°
2026-05-07 19:49 39.96768 -73.46164 20882 ft 498 kts 36°
2026-05-07 19:50 39.99386 -73.43223 20887 ft 497 kts 36°
2026-05-07 19:50 40.01989 -73.40246 20885 ft 498 kts 37°
2026-05-07 19:50 40.04552 -73.37249 20862 ft 490 kts 37°
2026-05-07 19:50 40.07047 -73.34283 20871 ft 482 kts 37°
2026-05-07 19:51 40.09517 -73.31338 20871 ft 480 kts 37°
2026-05-07 19:51 40.11983 -73.28402 20894 ft 481 kts 37°
2026-05-07 19:51 40.14466 -73.25446 20686 ft 483 kts 37°
2026-05-07 19:51 40.16942 -73.22493 20261 ft 480 kts 37°
2026-05-07 19:52 40.19401 -73.19555 19805 ft 476 kts 37°
2026-05-07 19:52 40.21835 -73.16645 19344 ft 472 kts 37°
2026-05-07 19:52 40.24247 -73.13759 18888 ft 468 kts 37°
2026-05-07 19:52 40.26637 -73.10897 18431 ft 464 kts 37°
2026-05-07 19:53 40.29001 -73.08066 17959 ft 459 kts 37°
2026-05-07 19:53 40.31349 -73.05252 17529 ft 453 kts 37°
2026-05-07 19:53 40.33656 -73.02482 17089 ft 447 kts 38°
2026-05-07 19:53 40.35937 -72.99743 16623 ft 442 kts 38°
2026-05-07 19:54 40.38197 -72.97030 16159 ft 438 kts 38°
2026-05-07 19:54 40.40433 -72.94341 15692 ft 434 kts 38°
2026-05-07 19:54 40.42646 -72.91676 15268 ft 429 kts 38°
2026-05-07 19:54 40.44819 -72.89055 14936 ft 422 kts 39°
2026-05-07 19:55 40.46947 -72.86486 14492 ft 419 kts 39°
2026-05-07 19:55 40.49117 -72.83874 14026 ft 415 kts 37°
2026-05-07 19:55 40.51498 -72.81968 13906 ft 389 kts 13°
2026-05-07 19:55 40.54031 -72.81267 13835 ft 359 kts 353°
2026-05-07 19:56 40.56402 -72.81575 13761 ft 329 kts 335°
2026-05-07 19:56 40.58449 -72.82543 13676 ft 304 kts 323°
2026-05-07 19:56 40.60166 -72.83919 13483 ft 277 kts 310°
2026-05-07 19:56 40.61522 -72.85615 13040 ft 265 kts 302°
2026-05-07 19:57 40.62768 -72.87386 12528 ft 263 kts 302°
2026-05-07 19:57 40.63999 -72.89145 12129 ft 258 kts 303°
2026-05-07 19:57 40.65191 -72.90829 11917 ft 246 kts 303°
2026-05-07 19:57 40.66348 -72.92435 11684 ft 239 kts 308°
2026-05-07 19:58 40.67895 -72.93397 11407 ft 261 kts 343°
2026-05-07 19:58 40.69730 -72.92985 11165 ft 280 kts 19°
2026-05-07 19:58 40.71204 -72.91255 10841 ft 292 kts 56°
2026-05-07 19:58 40.71821 -72.88717 10385 ft 296 kts 91°
2026-05-07 19:59 40.71380 -72.86115 9784 ft 291 kts 127°
2026-05-07 19:59 40.70197 -72.83977 9166 ft 290 kts 136°
2026-05-07 19:59 40.68896 -72.81915 8562 ft 295 kts 135°
2026-05-07 19:59 40.67570 -72.79834 7979 ft 298 kts 134°
2026-05-07 20:00 40.66187 -72.77817 7520 ft 293 kts 145°
2026-05-07 20:00 40.64407 -72.76731 7041 ft 277 kts 179°
2026-05-07 20:00 40.62578 -72.77063 6536 ft 261 kts 213°
2026-05-07 20:00 40.61294 -72.78607 5942 ft 248 kts 247°
2026-05-07 20:01 40.60969 -72.80763 5357 ft 241 kts 278°
2026-05-07 20:01 40.61343 -72.82905 4823 ft 240 kts 292°
2026-05-07 20:01 40.62031 -72.84907 4314 ft 241 kts 300°
2026-05-07 20:01 40.62904 -72.86784 3824 ft 241 kts 306°
2026-05-07 20:02 40.63893 -72.88556 3429 ft 237 kts 309°
2026-05-07 20:02 40.64917 -72.90194 3284 ft 228 kts 311°
2026-05-07 20:02 40.65942 -72.91720 3165 ft 217 kts 313°
2026-05-07 20:02 40.66936 -72.93146 3092 ft 204 kts 313°
2026-05-07 20:03 40.67870 -72.94456 2994 ft 186 kts 315°
2026-05-07 20:03 40.68729 -72.95606 2818 ft 170 kts 315°
2026-05-07 20:03 40.69528 -72.96660 2644 ft 157 kts 315°
2026-05-07 20:03 40.70311 -72.97693 2532 ft 164 kts 315°
2026-05-07 20:04 40.71118 -72.98754 2355 ft 160 kts 315°
2026-05-07 20:04 40.71887 -72.99764 2134 ft 152 kts 315°
2026-05-07 20:04 40.72629 -73.00741 1931 ft 151 kts 315°
2026-05-07 20:04 40.73378 -73.01727 1729 ft 154 kts 314°
2026-05-07 20:05 40.74143 -73.02734 1518 ft 154 kts 314°
2026-05-07 20:05 40.74901 -73.03731 1314 ft 155 kts 314°
2026-05-07 20:05 40.75660 -73.04734 1166 ft 155 kts 314°
2026-05-07 20:05 40.76432 -73.05747 934 ft 157 kts 314°
2026-05-07 20:06 40.77198 -73.06752 678 ft 153 kts 315°
2026-05-07 20:06 40.77929 -73.07732 500 ft 149 kts 316°
2026-05-07 20:06 40.78657 -73.08686 299 ft 146 kts 317°
2026-05-07 20:06 40.79354 -73.09597 109 ft 134 kts 318°
2026-05-07 20:07 40.79912 -73.10311 104 ft 72 kts 315°
2026-05-07 20:07 40.80090 -73.10555 104 ft 27 kts 313°
2026-05-07 20:07 40.80144 -73.10698 104 ft 15 kts 221°
2026-05-07 20:07 40.80032 -73.10720 105 ft 19 kts 174°
2026-05-07 20:08 40.79885 -73.10720 104 ft 23 kts 181°
2026-05-07 20:08 40.79707 -73.10723 102 ft 27 kts 180°
2026-05-07 20:08 40.79520 -73.10723 100 ft 26 kts 179°
2026-05-07 20:08 40.79345 -73.10720 100 ft 24 kts 179°
2026-05-07 20:09 40.79182 -73.10716 99 ft 23 kts 182°
2026-05-07 20:09 40.79118 -73.10652 99 ft 11 kts 90°
2026-05-07 20:09 40.79112 -73.10553 101 ft 11 kts 96°
2026-05-07 20:10 40.79112 -73.10362 98 ft 11 kts 91°
2026-05-07 20:10 40.79110 -73.10225 96 ft 18 kts 91°
2026-05-07 20:10 40.79115 -73.10047 96 ft 20 kts 97°
2026-05-07 20:10 40.79088 -73.09970 96 ft 8 kts 145°
2026-05-07 20:11 40.79081 -73.09949 96 ft 3 kts 84°
2026-05-07 20:11 40.79087 -73.09896 95 ft 10 kts 86°
2026-05-07 20:11 40.79086 -73.09780 97 ft 14 kts 85°
2026-05-07 20:11 40.79070 -73.09727 94 ft 4 kts 183°
2026-05-07 20:12 40.79052 -73.09729 94 ft 0 kts 179°
2026-05-07 20:12 40.79051 -73.09729 94 ft 0 kts 179°